TimeAST,TemperatureF,Dew PointF,Humidity,Sea Level PressureIn,VisibilityMPH,Wind Direction,Wind SpeedMPH,Gust SpeedMPH,PrecipitationIn,Events,Conditions,WindDirDegrees,DateUTC
12:00 AM,50.0,50.0,100,30.00,2.5,South,16.1,-,N/A,Rain,Light Rain,180,2012-12-09 04:00:00
12:13 AM,50.0,50.0,100,29.98,5.0,South,17.3,-,N/A,,Overcast,180,2012-12-09 04:13:00
12:25 AM,50.0,50.0,100,29.98,5.0,South,16.1,-,N/A,,Overcast,180,2012-12-09 04:25:00
12:51 AM,50.0,48.2,94,29.97,5.0,South,16.1,-,N/A,Rain,Light Rain,180,2012-12-09 04:51:00
12:59 AM,50.0,48.2,94,29.96,4.0,South,16.1,-,N/A,Rain,Light Rain,180,2012-12-09 04:59:00
1:00 AM,50.0,48.2,94,29.96,4.0,South,16.1,-,N/A,Rain,Light Rain,180,2012-12-09 05:00:00
1:08 AM,50.0,50.0,100,29.96,5.0,South,17.3,-,N/A,,Overcast,180,2012-12-09 05:08:00
2:00 AM,51,49,92,29.94,5,South,18.4,,,,Overcast,180,2012-12-09 06:00:00
2:00 AM,51.8,50.0,94,29.94,5.0,South,19.6,-,N/A,,Overcast,180,2012-12-09 06:00:00
2:29 AM,51.8,50.0,94,29.94,6.0,South,17.3,23.0,N/A,Rain,Light Rain,180,2012-12-09 06:29:00
2:51 AM,51.8,50.0,94,29.92,6.0,South,18.4,-,N/A,,Overcast,170,2012-12-09 06:51:00
3:00 AM,51.8,50.0,94,29.92,6.0,South,19.6,25.3,N/A,,Overcast,180,2012-12-09 07:00:00
3:06 AM,51.8,50.0,94,29.91,6.0,South,20.7,-,N/A,,Overcast,170,2012-12-09 07:06:00
3:53 AM,51.8,50.0,94,29.89,6.0,South,12.7,20.7,N/A,,Overcast,180,2012-12-09 07:53:00
3:56 AM,51.8,50.0,94,29.89,6.0,South,13.8,-,N/A,,Overcast,180,2012-12-09 07:56:00
4:00 AM,51.8,50.0,94,29.90,6.0,South,12.7,-,N/A,,Overcast,180,2012-12-09 08:00:00
4:59 AM,53.6,51.8,94,29.86,4.0,South,26.5,-,N/A,,Mostly Cloudy,190,2012-12-09 08:59:00
5:00 AM,53,51,90,29.86,4,SSW,21.9,,,,,200,2012-12-09 09:00:00
5:00 AM,53.6,51.8,94,29.86,4.0,South,27.6,-,N/A,,Mostly Cloudy,190,2012-12-09 09:00:00
5:17 AM,53.6,51.8,94,29.86,4.0,SSW,25.3,31.1,N/A,,Overcast,210,2012-12-09 09:17:00
5:26 AM,53.6,51.8,94,29.86,3.5,SSW,26.5,34.5,N/A,,Mostly Cloudy,200,2012-12-09 09:26:00
5:51 AM,53.6,51.8,94,29.87,3.5,South,24.2,29.9,N/A,,Overcast,190,2012-12-09 09:51:00
5:59 AM,53.6,51.8,94,29.87,3.0,South,21.9,29.9,N/A,,Overcast,180,2012-12-09 09:59:00
6:00 AM,53.6,51.8,94,29.87,3.0,South,23.0,29.9,N/A,,Overcast,180,2012-12-09 10:00:00
6:06 AM,53.6,51.8,94,29.87,2.5,South,23.0,28.8,N/A,,Overcast,190,2012-12-09 10:06:00
6:13 AM,51.8,51.8,100,29.87,1.8,South,24.2,29.9,N/A,,Overcast,180,2012-12-09 10:13:00
6:32 AM,51.8,50.0,94,29.87,2.0,South,21.9,28.8,N/A,,Overcast,190,2012-12-09 10:32:00
6:45 AM,51.8,51.8,100,29.87,1.4,SSW,21.9,-,N/A,,Overcast,200,2012-12-09 10:45:00
7:00 AM,51.8,51.8,100,29.88,1.0,SSW,20.7,-,N/A,,Overcast,200,2012-12-09 11:00:00
7:10 AM,51.8,51.8,100,29.88,0.6,SSW,20.7,-,N/A,,Overcast,210,2012-12-09 11:10:00
7:20 AM,51.8,50.0,94,29.88,0.4,SSW,16.1,21.9,N/A,,Unknown,200,2012-12-09 11:20:00
7:39 AM,51.8,50.0,94,29.87,0.1,SSW,17.3,-,N/A,,Unknown,200,2012-12-09 11:39:00
8:00 AM,51,50,93,29.88,0,SSW,17.3,,,,,210,2012-12-09 12:00:00
8:00 AM,51.8,50.0,94,29.88,0.1,SSW,18.4,-,N/A,,Unknown,210,2012-12-09 12:00:00
9:00 AM,48.2,48.2,100,29.91,0.1,WSW,21.9,-,N/A,,Unknown,250,2012-12-09 13:00:00
9:12 AM,48.2,48.2,100,29.91,0.4,WSW,19.6,-,N/A,,Unknown,250,2012-12-09 13:12:00
9:21 AM,48.2,48.2,100,29.92,0.4,West,19.6,27.6,N/A,,Overcast,260,2012-12-09 13:21:00
9:25 AM,48.2,48.2,100,29.92,0.8,West,18.4,27.6,N/A,,Overcast,260,2012-12-09 13:25:00
9:36 AM,48.2,48.2,100,29.92,1.5,West,23.0,29.9,N/A,,Overcast,270,2012-12-09 13:36:00
9:37 AM,48.2,46.4,93,29.92,1.5,West,23.0,29.9,N/A,,Overcast,270,2012-12-09 13:37:00
9:59 AM,48.2,48.2,100,29.93,2.5,West,16.1,23.0,N/A,,Overcast,260,2012-12-09 13:59:00
10:00 AM,48.2,48.2,100,29.94,2.5,West,16.1,23.0,N/A,,Overcast,260,2012-12-09 14:00:00
10:10 AM,48.2,48.2,100,29.93,2.5,West,13.8,20.7,N/A,,Overcast,260,2012-12-09 14:10:00
10:29 AM,50.0,48.2,94,29.93,2.5,West,19.6,28.8,N/A,,Overcast,270,2012-12-09 14:29:00
10:38 AM,50.0,48.2,94,29.93,5.0,West,19.6,25.3,N/A,,Overcast,270,2012-12-09 14:38:00
11:00 AM,49,48,94,29.93,6,West,17.3,,,,Overcast,270,2012-12-09 15:00:00
11:00 AM,50.0,48.2,94,29.93,6.0,West,16.1,21.9,N/A,,Overcast,270,2012-12-09 15:00:00
11:24 AM,50.0,48.2,94,29.93,2.4,West,18.4,24.2,N/A,,Overcast,270,2012-12-09 15:24:00
11:30 AM,50.0,48.2,94,29.93,1.8,West,17.3,24.2,N/A,,Overcast,270,2012-12-09 15:30:00
11:46 AM,50.0,48.2,94,29.92,2.0,West,20.7,-,N/A,,Overcast,280,2012-12-09 15:46:00
11:47 AM,50.0,48.2,94,29.92,2.0,West,20.7,-,N/A,,Overcast,280,2012-12-09 15:47:00
12:00 PM,48.2,48.2,100,29.94,2.0,West,17.3,23.0,N/A,,Overcast,280,2012-12-09 16:00:00
12:12 PM,48.2,48.2,100,29.93,2.4,WNW,17.3,23.0,N/A,,Mostly Cloudy,290,2012-12-09 16:12:00
12:23 PM,48.2,48.2,100,29.93,9.0,WNW,13.8,23.0,N/A,,Overcast,290,2012-12-09 16:23:00
12:35 PM,48.2,46.4,93,29.93,9.0,West,16.1,21.9,N/A,,Overcast,280,2012-12-09 16:35:00
1:00 PM,48.2,46.4,93,29.94,9.0,West,16.1,21.9,N/A,,Overcast,280,2012-12-09 17:00:00
2:00 PM,49,44,75,29.97,9,WNW,19.6,,,,Overcast,300,2012-12-09 18:00:00
2:00 PM,48.2,42.8,82,29.97,9.0,WNW,16.1,24.2,N/A,,Overcast,300,2012-12-09 18:00:00
2:24 PM,48.2,42.8,82,29.98,9.0,WNW,19.6,27.6,N/A,,Partly Cloudy,300,2012-12-09 18:24:00
3:00 PM,48.2,41.0,76,30.01,9.0,WNW,23.0,28.8,N/A,,Partly Cloudy,300,2012-12-09 19:00:00
4:00 PM,46.4,39.2,76,30.05,9.0,WNW,19.6,27.6,N/A,,Clear,300,2012-12-09 20:00:00
5:00 PM,46,38,66,30.09,9,NW,24.2,,,,,310,2012-12-09 21:00:00
5:00 PM,46.4,39.2,76,30.09,9.0,NW,23.0,29.9,N/A,,Partly Cloudy,310,2012-12-09 21:00:00
6:00 PM,46.4,35.6,66,30.12,9.0,NW,21.9,-,N/A,,Partly Cloudy,310,2012-12-09 22:00:00
7:00 PM,44.6,35.6,71,30.15,9.0,NNW,16.1,21.9,N/A,,Clear,330,2012-12-09 23:00:00
8:00 PM,43,33,57,30.18,9,NW,19.6,,,,,310,2012-12-10 00:00:00
8:00 PM,42.8,32.0,66,30.18,9.0,NW,18.4,24.2,N/A,,Clear,310,2012-12-10 00:00:00
9:00 PM,42.8,28.4,57,30.22,9.0,NW,24.2,-,N/A,,Clear,320,2012-12-10 01:00:00
10:00 PM,42.8,30.2,61,30.24,9.0,NW,20.7,28.8,N/A,,Clear,310,2012-12-10 02:00:00
11:00 PM,42,30,50,30.24,9,NW,18.4,,,,,310,2012-12-10 03:00:00